Regional Weather Roundup
Issued by NWS

Home | Current Version | Previous Version | Graphics & Text | Print | Product List | Glossary On
Versions: 1 2 3 4 5 6 7 8 9 10 11 12 13 14 15 16 17 18 19 20 21 22 23 24 25 26 27 28 29 30 31 32 33 34 35 36 37 38 39 40 41 42 43 44 45 46 47 48 49 50
000
ASUS43 KDTX 310010
RWRMI
MICHIGAN HOURLY REGIONAL WEATHER ROUNDUP
NATIONAL WEATHER SERVICE DETROIT/PONTIAC MI
700 PM EST FRI JAN 30 2015

NOTE: "FAIR" INDICATES FEW OR NO CLOUDS BELOW 12,000 FEET WITH NO
SIGNIFICANT WEATHER AND/OR OBSTRUCTION TO VISIBILITY.

MIZ047>049-052>055-059>063-066>070-074>076-081>083-310100-
SOUTHEAST LOWER MICHIGAN

CITY           SKY/WX    TMP DP  RH WIND       PRES   REMARKS
ADRIAN         CLEAR     18   8  65 CALM      30.42F
6HR MIN TEMP:  18; 6HR MAX TEMP:  23;

ALMA           CLEAR     14   7  72 CALM      30.41R
ANN ARBOR        N/A     10   4  76 CALM      30.41S
BAD AXE        CLEAR      3  -3  77 CALM      30.40F
6HR MIN TEMP:   3; 6HR MAX TEMP:  14;

DETROIT CITY   CLEAR     18   1  47 CALM      30.44S
6HR MIN TEMP:  18; 6HR MAX TEMP:  22;

DETROIT        PTCLDY    18   3  52 CALM      30.44S
6HR MIN TEMP:  17; 6HR MAX TEMP:  22;

FLINT          CLEAR     15   3  59 S3        30.41S
6HR MIN TEMP:  14; 6HR MAX TEMP:  20;

GROSSE ILE     CLEAR     16   1  53 CALM      30.43R
HILLSDALE      CLEAR     18   6  58 CALM      30.38S
6HR MIN TEMP:  18; 6HR MAX TEMP:  22;

HOWELL         PTCLDY    14   6  69 CALM      30.39F
6HR MIN TEMP:  14; 6HR MAX TEMP:  19;


CITY           SKY/WX    TMP DP  RH WIND       PRES   REMARKS
JACKSON        CLEAR     14   7  73 SW3       30.40S
6HR MIN TEMP:  14; 6HR MAX TEMP:  24;

LAMBERTVILLE   CLEAR     19   9  63 CALM      30.44R
LANSING        CLEAR     17   8  67 SW3       30.41S
6HR MIN TEMP:  17; 6HR MAX TEMP:  22;

LAPEER         NOT AVBL
MASON          CLEAR     16   7  68 CALM      30.40S
MONROE           N/A     18   7  62 CALM      30.42S
MT. CLEMENS    CLEAR      9   0  68 E3        30.41F
6HR MIN TEMP:   9; 6HR MAX TEMP:  16;

PONTIAC        PTCLDY    15   2  56 CALM      30.39S
6HR MIN TEMP:  14; 6HR MAX TEMP:  18;

PORT HOPE        N/A      7  -2  66 SW6       30.39F
6HR MIN TEMP:   6; 6HR MAX TEMP:  16;

PORT HURON     CLEAR      3  -4  72 CALM      30.44S
TRI CITIES     CLEAR     18   5  57 SW3       30.41F
6HR MIN TEMP:  17; 6HR MAX TEMP:  22;

YPSILANTI      CLEAR     20   3  48 CALM      30.42F
6HR MIN TEMP:  19; 6HR MAX TEMP:  25;

$$
MIZ043>046-050>051-056>058-064>065-071>073-077>080-310100-
SOUTHWEST LOWER MICHIGAN

CITY           SKY/WX    TMP DP  RH WIND       PRES   REMARKS
BATTLE CREEK   MOCLDY    17   7  64 NW3       30.40S
6HR MIN TEMP:  18; 6HR MAX TEMP:  24;

BENTON HARBOR  CLEAR     21  14  74 CALM      30.42F
6HR MIN TEMP:  20; 6HR MAX TEMP:  25; 6HR PCP: TRACE;

BIG RAPIDS     CLEAR     17   8  67 CALM      30.37F
6HR MIN TEMP:  17; 6HR MAX TEMP:  23;

COLDWATER      CLEAR     18   9  68 W5        30.41R
6HR MIN TEMP:  17; 6HR MAX TEMP:  24;

HOLLAND        CLOUDY    24  13  62 CALM      30.42F
6HR MIN TEMP:  23; 6HR MAX TEMP:  25;

GRAND RAPIDS   PTCLDY    19  10  68 W7        30.41S
6HR MIN TEMP:  19; 6HR MAX TEMP:  24;

KALAMAZOO      CLOUDY    22  12  65 W5        30.42S
6HR MIN TEMP:  22; 6HR MAX TEMP:  25;

MARSHALL       CLEAR     15   7  71 CALM      30.40S
MUSKEGON       PTCLDY    20  11  68 N3        30.42F
6HR MIN TEMP:  20; 6HR MAX TEMP:  23; 6HR PCP: TRACE;

$$
MIZ016>042-310100-
NORTHERN LOWER MICHIGAN

CITY           SKY/WX    TMP DP  RH WIND       PRES   REMARKS
ALPENA         CLEAR      5  -1  76 CALM      30.39S
6HR MIN TEMP:   3; 6HR MAX TEMP:  15; 6HR PCP: TRACE;

BEAVER ISLAND  CLOUDY    17   8  70 CALM      30.37F
6HR MIN TEMP:  13; 6HR MAX TEMP:  17;

CADILLAC       PTCLDY    14   6  71 CALM      30.33S
CHARLEVOIX     CLOUDY    18  10  71 W7        30.41F
6HR MIN TEMP:  14; 6HR MAX TEMP:  18;

FRANKFORT      MOCLDY    18  10  73 W3        30.40F
GAYLORD        CLOUDY    13   7  77 SW5       30.32F
6HR MIN TEMP:  11; 6HR MAX TEMP:  15;

GRAYLING       CLOUDY    16   7  68 CALM      30.35F
6HR MIN TEMP:  13; 6HR MAX TEMP:  16;

HARBOR SPRINGS FLURRIES  13   7  76 CALM      30.37F
HOUGHTON LAKE  CLOUDY    15   6  67 CALM      30.35S
6HR MIN TEMP:  14; 6HR MAX TEMP:  17;

MANISTEE       PTCLDY    16   5  62 CALM      30.41S
OSCODA         CLEAR      6  -3  68 CALM      30.39S
PELLSTON       CLOUDY    16   7  67 SW3       30.37F
6HR MIN TEMP:  11; 6HR MAX TEMP:  16;

TRAVERSE CITY  FLURRIES  18   9  68 W3        30.39S
6HR MIN TEMP:  16; 6HR MAX TEMP:  19; 6HR PCP: TRACE;

$$
MIZ007>008-015-310100-
EASTERN UPPER MICHIGAN

CITY           SKY/WX    TMP DP  RH WIND       PRES   REMARKS
KINROSS        CLOUDY    10   7  85 CALM      30.34F
6HR MIN TEMP:  10; 6HR MAX TEMP:  18;

MACKINAC ISLAN CLOUDY    15  10  79 SW5       30.35F
6HR MIN TEMP:   6; 6HR MAX TEMP:  15;

NEWBERRY       CLOUDY    10   7  87 SW6       30.33F
S. S. MARIE    CLOUDY    10   1  67 CALM      30.34F
6HR MIN TEMP:   6; 6HR MAX TEMP:  12;

$$
MIZ004>006-011>014-085-310100-
CENTRAL UPPER MICHIGAN

CITY           SKY/WX    TMP DP  RH WIND       PRES   REMARKS
MANISTIQUE     MOCLDY    15   4  63 CALM      30.35F
6HR MIN TEMP:  15; 6HR MAX TEMP:  17;

ESCANABA       MOCLDY    16   7  67 S7        30.36F
6HR MIN TEMP:  14; 6HR MAX TEMP:  18;

MENOMINEE      CLOUDY    18   9  68 SW8       30.36F
6HR MIN TEMP:  16; 6HR MAX TEMP:  18;

SAWYER-GWINN   CLOUDY    14   3  62 S5        30.29F
$$
MIZ001>003-009>011-084-310100-
WESTERN UPPER MICHIGAN

CITY           SKY/WX    TMP DP  RH WIND       PRES   REMARKS
IRON MOUNTAIN  MOCLDY    18   4  54 S6        30.28F
6HR MIN TEMP:  14; 6HR MAX TEMP:  19;

HOUGHTON       CLOUDY    13   6  74 CALM      30.25F
6HR MIN TEMP:  12; 6HR MAX TEMP:  16; 6HR PCP: TRACE;

COPPER HARBOR    N/A     15   8  73 SW6       30.29F
6HR MIN TEMP:  13; 6HR MAX TEMP:  15; 6HR PCP:  0.01;

IRONWOOD       CLOUDY    16   9  73 S6        30.21F
6HR MIN TEMP:  14; 6HR MAX TEMP:  18;

$$

ABBREVIATIONS USED IN REMARKS
   TC - TEMPERATURE IN CELSIUS
  WCI - WIND CHILL INDEX
   HX - HEAT INDEX
  VSB - VISIBILITY




USA.gov is the U.S. government's official web portal to all federal, state and local government web resources and services.